Simultaneous Nadir Overpasses (SNOs) Predictions

Prediction of SNOs between TERRA and METOP-C Satellite Orbit:

Table of predicted SNOs for the next 14.0 days since TLE Epoch: 3/21/2020
Index Date (TERRA) Time (TERRA) Lat,Lon (TERRA) SZA (TERRA ) Date (METOP-C) Time (METOP-C) Lat,Lon (METOP-C) SZA (METOP-C ) Distance(km) Time Diff (sec)
1 03/22/2020 08:32:28 -81.30, -80.73 96.97 03/22/2020 08:31:50 -81.29, -80.71 96.99 0.70 38
2 03/22/2020 09:21:54 81.30, 86.98 83.03 03/22/2020 09:22:30 81.30, 87.10 83.06 2.01 36
3 03/25/2020 04:06:41 -81.30, -14.30 98.05 03/25/2020 04:06:13 -81.29, -14.49 98.09 3.33 28
4 03/25/2020 04:56:07 81.30, 153.39 81.95 03/25/2020 04:56:53 81.30, 153.33 81.96 1.01 46
5 03/27/2020 23:40:55 -81.30, 52.10 99.13 03/27/2020 23:40:36 -81.29, 52.10 99.14 0.24 19
6 03/28/2020 00:30:21 81.30,-140.24 80.87 03/28/2020 00:31:16 81.30,-140.07 80.91 2.91 55
7 03/30/2020 19:15:09 -81.29, 118.48 100.20 03/30/2020 19:15:00 -81.29, 118.30 100.23 3.04 9
8 03/30/2020 20:04:35 81.29, -73.88 79.79 03/30/2020 20:05:40 81.30, -73.87 79.83 0.76 65
9 04/02/2020 13:59:55 81.29, 17.15 78.74 04/02/2020 13:58:43 81.29, 17.03 78.70 2.00 72
10 04/02/2020 14:49:22 -81.29,-175.17 101.27 04/02/2020 14:49:22 -81.29,-175.12 101.26 1.05 0




NCC Satellite Simultaneous Nadir Overpasses (SNOs) Prediction Service
